Flag for Croatia Weather past 2 weeks in Zagreb, Croatia

Now
45 °F

Passing clouds.


Feels Like: 39 °F
Forecast: 22 / 34 °F
Wind: 10 mph from Northwest

Location: Zagreb / Pleso

Current Time: Dec 26, 2014 at 2:52:37 PM

Latest Report: Dec 26, 2014 at 2:00 PM


Visibility: N/A

Pressure: 30.18 "Hg

Humidity: 61%

Dew point: 32 °F

Location of ZagrebLocation

Historic Weather in Zagreb — Graph

°F

Zagreb temperature yesterday

Maximum temperature yesterday: 55 °F (at 2:30 PM)
Minimum temperature yesterday: 34 °F (at 6:30 AM)
Average temperature yesterday: 44 °F

Past Weeks' High & Low Weather Summary

 TemperatureHumidityPressure
High61 °F (Dec 15, 2:30 PM)100% (Dec 12, 2:00 AM)30.42 "Hg (Dec 12, 2:00 AM)
Low25 °F (Dec 12, 7:00 AM)38% (Dec 21, 1:30 PM)29.80 "Hg (Dec 16, 9:30 PM)
Average43 °F82%30.11 "Hg
* Reported Dec 11 2:00 PM — Dec 26 2:00 PM, Zagreb, Weather by CustomWeather, © 2014

Note: Actual official high and low records may vary slightly from our data, if they occured in-between our weather recording intervals... More about our weather records

Advertising

Zagreb weather history for previous 24 hours

 ConditionsComfort  
Time TempWeatherWind HumidityBarometerVisibility
2:00 PM
Dec 26
45 °FPassing clouds.10 mph61%30.18 "HgN/A
1:30 PM45 °FPassing clouds.10 mph66%30.18 "HgN/A
1:00 PM45 °FPassing clouds.10 mph66%30.18 "HgN/A
12:30 PM45 °FPassing clouds.8 mph71%30.21 "HgN/A
12:00 PM43 °FPassing clouds.9 mph71%30.21 "HgN/A
11:30 AM41 °FPassing clouds.8 mph76%30.21 "HgN/A
11:00 AM39 °FPassing clouds.5 mph87%30.24 "HgN/A
10:30 AM37 °FPassing clouds.5 mph93%30.24 "HgN/A
10:00 AM36 °FPassing clouds.3 mph93%30.24 "HgN/A
9:30 AM34 °FPassing clouds.3 mph100%30.24 "HgN/A
9:00 AM34 °FPassing clouds.2 mph93%30.24 "HgN/A
8:30 AM34 °FPassing clouds.2 mph93%30.21 "HgN/A
8:00 AM34 °FPassing clouds.2 mph93%30.21 "HgN/A
7:30 AM34 °FPassing clouds.1 mph93%30.21 "HgN/A
7:00 AM34 °FPassing clouds.2 mph93%30.24 "HgN/A
6:30 AM34 °FPassing clouds.8 mph93%30.24 "HgN/A
6:00 AM34 °FPassing clouds.7 mph100%30.21 "HgN/A
5:30 AM36 °FPassing clouds.5 mph93%30.21 "HgN/A
5:00 AM34 °FPartly cloudy.5 mph100%30.21 "HgN/A
4:30 AM34 °FPassing clouds.No wind93%30.21 "HgN/A
3:30 AM34 °FLight rain. Passing clouds.6 mph93%30.24 "Hg5 mi
3:00 AM34 °FLight rain. Mostly cloudy.3 mph93%30.24 "Hg4 mi
2:30 AM36 °FLight rain. Mostly cloudy.2 mph93%30.24 "Hg4 mi
2:00 AM36 °FLight rain. Mostly cloudy.6 mph93%30.21 "HgN/A
1:30 AM37 °FLight rain. Mostly cloudy.7 mph87%30.21 "HgN/A
1:00 AM37 °FRain. Mostly cloudy.8 mph93%30.18 "Hg5 mi
12:30 AM39 °FRain. Mostly cloudy.8 mph87%30.18 "Hg5 mi
12:00 AM39 °FRain. Mostly cloudy.10 mph93%30.18 "Hg5 mi
11:30 PM
Dec 25
41 °FRain. Overcast.7 mph87%30.18 "Hg5 mi
11:00 PM41 °FLight rain. Mostly cloudy.5 mph87%30.18 "HgN/A
10:30 PM43 °FLight rain. Mostly cloudy.10 mph81%30.15 "HgN/A
10:00 PM43 °FLight rain. Overcast.14 mph81%30.15 "HgN/A
9:30 PM45 °FLight rain. Overcast.9 mph76%30.12 "HgN/A
9:00 PM45 °FLight rain. Overcast.7 mph76%30.12 "HgN/A
8:30 PM43 °FPassing clouds.5 mph81%30.12 "HgN/A
8:00 PM45 °FClear.7 mph76%30.12 "Hg10 mi
7:30 PM45 °FClear.9 mph76%30.12 "Hg10 mi
7:00 PM46 °FClear.9 mph76%30.12 "Hg10 mi
6:30 PM43 °FClear.7 mph87%30.12 "Hg10 mi
6:00 PM43 °FClear.No wind81%30.09 "Hg10 mi
5:30 PM45 °FClear.No wind76%30.09 "Hg10 mi
5:00 PM46 °FClear.No wind71%30.09 "Hg10 mi
4:30 PM50 °FClear.No wind67%30.07 "Hg10 mi
4:00 PM54 °FSunny.No wind58%30.07 "Hg10 mi
3:30 PM55 °FSunny.No wind55%30.09 "Hg10 mi
3:00 PM55 °FSunny.1 mph55%30.09 "Hg10 mi
2:30 PM55 °FSunny.1 mph55%30.09 "Hg10 mi
2:00 PM54 °FPassing clouds.3 mph58%30.09 "HgN/A
Weather by CustomWeather, © 2014

See weather overviewHow to use our weather pages